Rionegro, Colombia

3:32 AM COT on February 26, 2017 (GMT -0500)
Jose Maria Cordova

Weather History for SKRG - June, 2014

Change the Weather History Date:

Saturday, June 7, 2014

  Actual Average Record
Temperature  
Mean Temperature 64 °F -  
Max Temperature 73 °F 69 °F 74 °F (2012)
Min Temperature 56 °F 53 °F 50 °F (2004)
Growing Degree Days 14 (Base 50)    
Moisture  
Dew Point 56 °F    
Average Humidity 83    
Maximum Humidity 100    
Minimum Humidity 41    
Precipitation  
Precipitation 0.00 in - - ()
Sea Level Pressure  
Sea Level Pressure 30.25 in    
Wind  
Wind Speed 4 mph ()    
Max Wind Speed 16 mph    
Max Gust Speed -    
Visibility 5.8 miles    
Events Fog , Rain , Thunderstorm    
Averages and records for this station are not official NWS values.
T = Trace of Precipitation, MM = Missing Value Source: Averaged Metar Reports

Daily Weather History Graph

Daily Weather History Graph

Search for Another Location

Airport or City:

Trip Planner

Search our weather history database for the weather conditions in past years. The results will help you decide how hot, cold, wet, or windy it might be!

Date:

Astronomy

Jun. 07, 2014 Rise Set
Actual Time 5:46 AM COT 6:14 PM COT
Civil Twilight 5:23 AM COT 6:37 PM COT
Nautical Twilight 4:57 AM COT 7:03 PM COT
Astronomical Twilight 4:30 AM COT 7:30 PM COT
Moon 1:28 PM COT (6/7) 1:01 AM COT (6/7)
Length of Visible Light 13h 13m
Length of Day
12h 28m
Waxing Gibbous, 68% of the Moon is Illuminated
Jun 7
Waxing Gibbous
Jun 12
Full
Jun 19
Last Quarter
Jun 27
New
Jul 5
First Quarter

Hourly Weather History & Observations

Time (COT) Temp. Dew Point Humidity Pressure Visibility Wind Dir Wind Speed Gust Speed Precip Events Conditions
12:00 AM 59.0 °F 57.2 °F 94% 30.30 in 3.1 mi NNE 6.9 mph - N/A Rain , Thunderstorm Thunderstorms and Rain
1:00 AM 58 °F 57 °F 94%  in 6 mi NE 6.7 mph - - Rain Light Rain
1:00 AM 57.2 °F 57.2 °F 100% 30.27 in 5.6 mi NE 6.9 mph - N/A Rain Light Rain
2:00 AM 57.2 °F 57.2 °F 100% 30.26 in 5.6 mi Calm Calm - N/A   Light Drizzle
3:00 AM 57.2 °F 57.2 °F 100% 30.25 in 5.0 mi Calm Calm - N/A Fog Fog
4:00 AM 57 °F 56 °F 95%  in 6 mi Calm Calm - -   Haze
4:00 AM 57.2 °F 57.2 °F 100% 30.22 in 6.2 mi Calm Calm - N/A   Mostly Cloudy
5:00 AM 57.2 °F 57.2 °F 100% 30.23 in 6.2 mi Calm Calm - N/A Fog Shallow Fog
5:30 AM 57.2 °F 57.2 °F 100% 30.23 in 6.2 mi Calm Calm - N/A Fog Shallow Fog
6:00 AM 57.2 °F 55.4 °F 94% 30.24 in 5.6 mi Calm Calm - N/A Fog Fog
7:00 AM 57 °F 54 °F 88%  in 9 mi Calm Calm - -   Haze
7:00 AM 57.2 °F 53.6 °F 88% 30.24 in 6.2 mi Calm Calm - N/A   Mostly Cloudy
8:00 AM 59.0 °F 57.2 °F 94% 30.26 in 5.0 mi Calm Calm - N/A   Mostly Cloudy
9:00 AM 62.6 °F 55.4 °F 77% 30.27 in 6.2 mi Calm Calm - N/A   Mostly Cloudy
10:00 AM 65 °F 57 °F 67%  in 12 mi Calm Calm - -   Haze
10:00 AM 64.4 °F 57.2 °F 77% 30.27 in 6.2 mi Calm Calm - N/A   Mostly Cloudy
11:00 AM 68.0 °F 57.2 °F 68% 30.27 in 6.2 mi NNE 6.9 mph - N/A   Mostly Cloudy
12:00 PM 69.8 °F 57.2 °F 64% 30.27 in 6.2 mi NE 6.9 mph - N/A   Mostly Cloudy
1:00 PM 72 °F 53 °F 41%  in 12 mi East 11.2 mph - -   Haze
1:00 PM 71.6 °F 53.6 °F 53% 30.22 in 6.2 mi East 11.5 mph - N/A   Mostly Cloudy
2:00 PM 73.4 °F 51.8 °F 47% 30.20 in 6.2 mi East 9.2 mph - N/A   Mostly Cloudy
3:00 PM 71.6 °F 53.6 °F 53% 30.19 in 6.2 mi East 8.1 mph - N/A   Mostly Cloudy
4:00 PM 71.6 °F 57.2 °F 60% 30.17 in 6.2 mi East 9.2 mph - N/A   Mostly Cloudy
5:00 PM 68.0 °F 57.2 °F 68% 30.17 in 6.2 mi East 12.7 mph - N/A   Light Drizzle
6:00 PM 64.4 °F 60.8 °F 88% 30.20 in 1.9 mi SE 16.1 mph - N/A Rain , Thunderstorm Thunderstorms and Rain
7:00 PM 59.0 °F 57.2 °F 94% 30.25 in 4.3 mi South 4.6 mph - N/A Rain , Thunderstorm Light Thunderstorms and Rain
8:00 PM 59.0 °F 57.2 °F 94% 30.27 in 3.1 mi North 6.9 mph - N/A Rain , Thunderstorm Light Thunderstorms and Rain
9:00 PM 59.0 °F 57.2 °F 94% 30.30 in 5.0 mi NE 4.6 mph - N/A   Light Drizzle
10:00 PM 59 °F 58 °F 94%  in 2 mi Calm Calm - - Rain Light Drizzle
10:00 PM 59.0 °F 57.2 °F 94% 30.30 in 2.5 mi Calm Calm - N/A   Light Drizzle
11:00 PM 59.0 °F 57.2 °F 94% 30.30 in 5.0 mi North 8.1 mph - N/A   Light Drizzle